Powrót do katalogu

STARLINK-33952

AktywnyŁącznośćVLEO
NORAD 64046·PAYLOAD·🇺🇸 United States

Wystrzelony May 16, 2025 z Vandenberg Space Force Base

Loading…

Następne Przeloty (najbliższe 24 godziny)

TLE

ŚwieżeSource: CelesTrak SupGP

Epoka: Sep 15, 2026, 03:50 UTC

1 64046C 25102AA  26258.16020833  .00091793  00000+0  31924-2 0  2583
2 64046  70.0008 355.2380 0003435 268.6617 335.1445 15.29540553    19

Śledź STARLINK-33952 w czasie rzeczywistym z AllMySat

Download on the App Store